Overview Statistics Trail Chart Weather Telemetry Raw packets
 

This is the latest recevied weather packets stored in our database for station/object WA6ODQ-13. If no packets are shown the sender has not sent any weather packets the latest 10 day(s).

<< 45 46 47 48 49 50 51 >>
Time Temp. Humidity Pressure Rain* Wind** Luminosity Snow
1788363432 18.33° C 76% 1015.8 hPa 0 mm - 89 W/m² -
1788363126 17.78° C 77% 1015.6 hPa 0 mm - 76 W/m² -
1788362822 17.78° C 78% 1015.6 hPa 0 mm - 68 W/m² -
1788362518 17.78° C 78% 1015.7 hPa 0 mm - 70 W/m² -
1788362213 17.78° C 78% 1015.5 hPa 0 mm - 69 W/m² -
1788361908 17.78° C 79% 1015.4 hPa 0 mm - 62 W/m² -
1788361603 17.78° C 79% 1015.4 hPa 0 mm - 58 W/m² -
1788361299 17.22° C 80% 1015.3 hPa 0 mm - 54 W/m² -
1788360998 17.22° C 81% 1015.1 hPa 0 mm - 49 W/m² -
1788360698 17.22° C 82% 1015.2 hPa 0 mm - 45 W/m² -
1788360395 17.22° C 82% 1015.1 hPa 0 mm - 40 W/m² -
1788360090 16.67° C 83% 1015 hPa 0 mm - 36 W/m² -
1788359785 16.67° C 83% 1014.9 hPa 0 mm - 31 W/m² -
1788359481 16.67° C 84% 1015.1 hPa 0 mm - 28 W/m² -
1788359176 16.67° C 83% 1014.8 hPa 0 mm - 24 W/m² -
1788358872 16.67° C 82% 1014.8 hPa 0 mm - 20 W/m² -
1788358571 16.67° C 83% 1014.5 hPa 0 mm - 16 W/m² -
1788358266 16.67° C 84% 1014.5 hPa 0 mm - 13 W/m² -
1788357961 16.67° C 84% 1014.9 hPa 0 mm - 8 W/m² -
1788357656 16.67° C 84% 1014.9 hPa 0 mm - 7 W/m² -
1788357350 16.67° C 84% 1014.6 hPa 0 mm - 4 W/m² -
1788357045 16.67° C 85% 1014.9 hPa 0 mm - 3 W/m² -
1788356740 16.11° C 87% 1014.8 hPa 0 mm - 2 W/m² -
1788356435 16.11° C 88% 1014.6 hPa 0 mm - 1 W/m² -
1788356130 15.56° C 88% 1014.5 hPa 0 mm - 1 W/m² -

* Rain latest hour (hover to see other rain measurements)
** Current wind speed in m/s (hover to see current wind gust speed)